[[{"header":{"parameterUnit":"m.s-1","parameterCategory":1,"la1":30.2991,"la2":30.254,"lo1":-89.0895,"lo2":-89.0444,"dy":0.0017,"dx":0.0017,"nx":28,"ny":28,"refTime":"2023-11-23T03:00:00:Z","depth":0,"parameterNumber":2,"parameterNumberName":"U-component_of_WINDS"},"data":[0,0,0,0,0,0,0,0,0,0,0,0,0,0,0,0,0,0,0,0,0,0,0,0,0,0,0,0,0,0,0,0,0,0,0,0,0,0,0,0,0,0,0,0,0,0,0,0,0,0,0,0,0,0,0,0,0,0,-1.311,-1.311,0,-1.3111,-1.3111,-1.3111,-1.308,-1.3079,-1.3078,-1.3078,-1.3078,-1.3079,-1.308,0,0,0,0,0,0,0,0,0,0,0,0,0,-1.3083,-1.3084,-1.311,-1.311,-1.311,-1.3111,-1.3111,-1.3111,-1.308,-1.3079,-1.3078,-1.3077,-1.3078,-1.3079,-1.308,0,0,0,0,0,0,0,0,0,0,0,0,0,-1.3091,-1.3084,-1.311,-1.3095,-1.3094,-1.3111,-1.3111,-1.3111,-1.308,-1.3079,-1.3078,-1.3077,-1.3078,-1.3079,-1.308,-1.3112,0,0,-1.3084,-1.3084,0,0,0,0,0,0,0,0,-1.309,-1.3092,-1.3097,-1.3096,-1.3095,-1.3094,-1.3101,-1.3111,-1.3081,-1.3086,-1.3078,-1.3076,-1.3085,-1.3085,-1.3088,-1.3112,-1.3112,-1.3084,-1.3085,-1.3085,-1.3085,0,0,0,0,0,0,0,-1.309,-1.3091,-1.311,-1.3098,-1.3096,-1.3088,-1.3088,-1.3103,-1.3092,-1.3085,-1.3083,-1.3083,-1.3084,-1.3087,-1.3088,-1.3112,-1.3084,-1.3085,-1.3086,-1.3086,-1.3159,-1.316,0,0,0,0,0,0,-1.3091,-1.3091,-1.311,-1.311,-1.3089,-1.309,-1.3089,-1.3096,-1.3092,-1.309,-1.3084,-1.3082,-1.3085,-1.3086,-1.3088,-1.3122,-1.3085,-1.3086,-1.3087,-1.3157,-1.3159,-1.316,0,0,0,0,0,0,-1.3091,-1.3093,-1.311,-1.31,-1.3102,-1.3091,-1.3099,-1.3096,-1.3099,-1.3091,-1.3089,-1.3089,-1.3085,-1.3086,-1.3105,-1.3122,-1.3087,-1.3088,-1.3156,-1.3158,-1.316,-1.3193,0,0,0,0,0,0,-1.309,-1.3093,-1.3105,-1.3101,-1.3102,-1.3128,-1.31,-1.3097,-1.3101,-1.3098,-1.3095,-1.3094,-1.3084,-1.3104,-1.3106,-1.3123,-1.3089,-1.3154,-1.3157,-1.3159,-1.3191,-1.3196,-1.3201,0,0,0,0,0,-1.3089,-1.3116,-1.3106,-1.3109,-1.3117,-1.313,-1.313,-1.3118,-1.3103,-1.3114,-1.3109,-1.3094,-1.312,-1.3106,-1.3109,-1.3126,-1.3153,-1.3156,-1.3159,-1.3189,-1.3195,-1.3201,0,0,0,0,0,0,-1.3123,-1.3115,-1.3104,-1.313,-1.313,-1.3124,-1.3139,-1.3126,-1.3131,-1.3128,-1.3113,-1.3112,-1.3134,-1.3132,-1.3116,-1.3155,-1.3134,-1.3137,-1.3155,-1.3162,-1.3167,-1.3166,-1.309,0,0,0,0,0,-1.3134,-1.3144,-1.3136,-1.316,-1.316,-1.315,-1.3155,-1.3145,-1.3145,-1.3145,-1.3141,-1.3142,-1.315,-1.3156,-1.3163,-1.319,-1.3189,-1.3204,-1.3209,-1.3213,-1.3216,-1.3228,-1.3234,-1.3169,-1.3169,-1.3169,0,0,-1.3156,-1.3152,-1.316,-1.3166,-1.3166,-1.3176,-1.315,-1.3163,-1.3171,-1.3147,-1.3165,-1.3162,-1.3161,-1.3184,-1.3194,-1.3184,-1.3233,-1.3216,-1.322,-1.322,-1.3232,-1.3238,-1.3243,-1.3171,-1.3171,-1.3171,0,0,-1.3201,-1.32,-1.3218,-1.3217,-1.3216,-1.3209,-1.3213,-1.3209,-1.3205,-1.3222,-1.3204,-1.3213,-1.3228,-1.3228,-1.323,-1.3273,-1.3259,-1.3276,-1.3302,-1.3314,-1.3319,-1.3324,-1.3338,-1.3343,-1.3279,-1.3279,-1.3279,0,-1.3228,-1.3243,-1.3229,-1.3243,-1.3245,-1.3224,-1.3242,-1.3242,-1.3244,-1.3246,-1.3234,-1.325,-1.3249,-1.3271,-1.3281,-1.3284,-1.3287,-1.3276,-1.332,-1.3324,-1.3328,-1.3341,-1.3347,-1.3281,-1.3281,-1.3281,-1.328,0,-1.3276,-1.3287,-1.3302,-1.3303,-1.3307,-1.3323,-1.3311,-1.3317,-1.3307,-1.33,-1.3317,-1.3314,-1.3319,-1.3324,-1.3314,-1.3344,-1.3337,-1.3323,-1.3301,-1.3337,-1.3348,-1.3353,-1.3284,-1.3283,-1.3282,-1.3282,0,0,-1.3343,-1.3335,-1.3341,-1.334,-1.3336,-1.3344,-1.3359,-1.3363,-1.3368,-1.337,-1.3381,-1.3393,-1.3379,-1.3381,-1.3371,-1.3382,-1.3414,-1.3366,-1.3366,-1.3374,-1.3445,-1.3455,-1.3461,-1.3405,-1.3406,-1.3407,-1.3444,0,-1.3386,-1.3409,-1.3396,-1.3421,-1.343,-1.3409,-1.3421,-1.342,-1.3414,-1.3421,-1.3414,-1.3422,-1.3404,-1.3405,-1.3415,-1.3408,-1.3428,-1.3405,-1.3414,-1.3415,-1.3414,-1.3467,-1.3478,-1.3514,-1.3449,-1.345,-1.345,0,-1.3439,-1.3441,-1.3467,-1.346,-1.3463,-1.3475,-1.3477,-1.3484,-1.3481,-1.3476,-1.3477,-1.3464,-1.3477,-1.3456,-1.3472,-1.3457,-1.346,-1.3457,-1.3458,-1.3458,-1.3434,-1.3467,-1.3525,-1.353,-1.3458,-1.3457,-1.3457,0,-1.3484,-1.3494,-1.351,-1.351,-1.3503,-1.3511,-1.3508,-1.3504,-1.3507,-1.3509,-1.3511,-1.3514,-1.3516,-1.3519,-1.3507,-1.3493,-1.3524,-1.3503,-1.352,-1.352,-1.3527,-1.3526,-1.3585,-1.353,-1.353,-1.353,-1.353,0,-1.3532,-1.3548,-1.3529,-1.3539,-1.3557,-1.3541,-1.3558,-1.3553,-1.355,-1.3558,-1.354,-1.3548,-1.3532,-1.3538,-1.3529,-1.3543,-1.3544,-1.354,-1.3537,-1.3541,-1.3541,-1.3542,-1.3539,-1.3532,-1.3531,-1.3531,-1.3531,0,-1.3585,-1.3573,-1.3589,-1.358,-1.3578,-1.3591,-1.3583,-1.3591,-1.3584,-1.3594,-1.3596,-1.3583,-1.3589,-1.3577,-1.3582,-1.3576,-1.3595,-1.3589,-1.3596,-1.3594,-1.3611,-1.3609,-1.3671,-1.3678,-1.362,-1.362,-1.3621,0,-1.3616,-1.3628,-1.362,-1.3623,-1.3621,-1.3628,-1.363,-1.3615,-1.3618,-1.3615,-1.3624,-1.3628,-1.3631,-1.3641,-1.3633,-1.3636,-1.3629,-1.365,-1.3629,-1.3632,-1.3628,-1.3627,-1.3627,-1.3655,-1.3655,-1.3656,-1.3656,0,-1.3672,-1.3665,-1.3669,-1.3671,-1.3674,-1.3675,-1.3674,-1.3678,-1.3662,-1.3666,-1.3671,-1.3673,-1.3677,-1.3682,-1.3682,-1.3679,-1.3665,-1.3663,-1.3667,-1.3671,-1.3674,-1.3671,-1.3607,-1.3662,-1.3661,-1.3661,-1.3661,-1.366,-1.3714,-1.3723,-1.3718,-1.3723,-1.372,-1.372,-1.3726,-1.3719,-1.3723,-1.3725,-1.3715,-1.3722,-1.3718,-1.3717,-1.3716,-1.3721,-1.3711,-1.3717,-1.3718,-1.372,-1.3722,-1.3673,-1.3721,-1.3721,-1.372,-1.372,-1.372,0,-1.3768,-1.3764,-1.3768,-1.3767,-1.377,-1.3756,-1.3754,-1.3758,-1.3764,-1.3761,-1.3763,-1.3769,-1.3772,-1.3763,-1.3765,-1.3771,-1.3764,-1.3772,-1.3771,-1.377,-1.3731,-1.3727,-1.3777,-1.3777,-1.3777,-1.3777,-1.3777,-1.3777,-1.3797,-1.381,-1.3803,-1.3814,-1.3809,-1.3816,-1.3815,-1.3814,-1.3812,-1.3818,-1.3821,-1.3815,-1.3809,-1.381,-1.3812,-1.3809,-1.381,-1.382,-1.3815,-1.3779,-1.3773,-1.3768,-1.3764,-1.3821,-1.3821,-1.3853,-1.3853,-1.3854]},{"header":{"parameterUnit":"m.s-1","parameterCategory":1,"la1":30.2991,"la2":30.254,"lo1":-89.0895,"lo2":-89.0444,"dy":0.0017,"dx":0.0017,"nx":28,"ny":28,"refTime":"2023-11-23T03:00:00:Z","depth":0,"parameterNumber":3,"parameterNumberName":"V-component_of_WINDS"},"data":[0,0,0,0,0,0,0,0,0,0,0,0,0,0,0,0,0,0,0,0,0,0,0,0,0,0,0,0,0,0,0,0,0,0,0,0,0,0,0,0,0,0,0,0,0,0,0,0,0,0,0,0,0,0,0,0,0,0,-3.5371,-3.5372,0,-3.5461,-3.5462,-3.5463,-3.5441,-3.5439,-3.5437,-3.5436,-3.5525,-3.5529,-3.5533,0,0,0,0,0,0,0,0,0,0,0,0,0,-3.5177,-3.5181,-3.5371,-3.5372,-3.5373,-3.5461,-3.5462,-3.5463,-3.5441,-3.5439,-3.5437,-3.5435,-3.5524,-3.5529,-3.5534,0,0,0,0,0,0,0,0,0,0,0,0,0,-3.5264,-3.5182,-3.5371,-3.5373,-3.5374,-3.5461,-3.5462,-3.5464,-3.5442,-3.5439,-3.5436,-3.5434,-3.5523,-3.5528,-3.5534,-3.5624,0,0,-3.5553,-3.5555,0,0,0,0,0,0,0,0,-3.5259,-3.5271,-3.5371,-3.5373,-3.5374,-3.5437,-3.5427,-3.5517,-3.5442,-3.5416,-3.5436,-3.5433,-3.5498,-3.5506,-3.5528,-3.5628,-3.5632,-3.5553,-3.5557,-3.5559,-3.5561,0,0,0,0,0,0,0,-3.5253,-3.5267,-3.5406,-3.5373,-3.5375,-3.5368,-3.5378,-3.5444,-3.547,-3.5418,-3.5417,-3.5428,-3.5498,-3.5523,-3.553,-3.5633,-3.5553,-3.5558,-3.5562,-3.5564,-3.5809,-3.5812,0,0,0,0,0,0,-3.5246,-3.5262,-3.5404,-3.5409,-3.5309,-3.5374,-3.5384,-3.5419,-3.547,-3.5475,-3.543,-3.5426,-3.5514,-3.5523,-3.5533,-3.564,-3.5559,-3.5565,-3.5569,-3.5806,-3.581,-3.5813,0,0,0,0,0,0,-3.5242,-3.5259,-3.54,-3.5335,-3.5353,-3.538,-3.542,-3.5423,-3.5447,-3.5479,-3.5483,-3.545,-3.5512,-3.5525,-3.5601,-3.5643,-3.5568,-3.5573,-3.5803,-3.5807,-3.5811,-3.5855,0,0,0,0,0,0,-3.5236,-3.5258,-3.5292,-3.5336,-3.5356,-3.5467,-3.5422,-3.5426,-3.5458,-3.5454,-3.5499,-3.5504,-3.5511,-3.5592,-3.5607,-3.565,-3.5578,-3.5799,-3.5805,-3.581,-3.585,-3.5861,-3.587,0,0,0,0,0,-3.523,-3.5301,-3.5294,-3.5311,-3.5401,-3.547,-3.5481,-3.5489,-3.5461,-3.5496,-3.5516,-3.5502,-3.5637,-3.56,-3.5617,-3.5662,-3.5797,-3.5803,-3.581,-3.5846,-3.5859,-3.5869,0,0,0,0,0,0,-3.526,-3.5307,-3.53,-3.5388,-3.5425,-3.5466,-3.551,-3.5502,-3.5547,-3.5542,-3.5549,-3.5559,-3.5637,-3.5657,-3.5616,-3.5751,-3.5712,-3.5723,-3.5734,-3.5747,-3.5756,-3.5749,-3.5583,0,0,0,0,0,-3.5278,-3.5331,-3.5368,-3.5442,-3.5461,-3.5482,-3.5513,-3.5516,-3.5554,-3.557,-3.5595,-3.5633,-3.5683,-3.5716,-3.5765,-3.5854,-3.5862,-3.5893,-3.5902,-3.591,-3.5918,-3.5966,-3.5979,-3.5834,-3.5834,-3.5834,0,0,-3.5313,-3.5345,-3.5378,-3.5449,-3.5478,-3.5532,-3.5496,-3.5554,-3.5594,-3.5578,-3.5652,-3.5672,-3.5714,-3.5797,-3.5835,-3.5816,-3.5961,-3.5919,-3.5925,-3.5929,-3.5974,-3.5988,-3.6,-3.5839,-3.5838,-3.5837,0,0,-3.5405,-3.5436,-3.55,-3.553,-3.5575,-3.5589,-3.5604,-3.5647,-3.566,-3.5734,-3.5723,-3.577,-3.5857,-3.5887,-3.5914,-3.6018,-3.6006,-3.6034,-3.6083,-3.613,-3.6141,-3.6151,-3.6187,-3.62,-3.6042,-3.6042,-3.6042,0,-3.5444,-3.5525,-3.5534,-3.5593,-3.5624,-3.5613,-3.5678,-3.5707,-3.5765,-3.5786,-3.5765,-3.5874,-3.5901,-3.5991,-3.6016,-3.6038,-3.6055,-3.6028,-3.6139,-3.6149,-3.6159,-3.6193,-3.6206,-3.6045,-3.6045,-3.6044,-3.6044,0,-3.5569,-3.5626,-3.5672,-3.573,-3.5766,-3.5828,-3.5844,-3.588,-3.588,-3.5896,-3.5971,-3.6004,-3.6058,-3.608,-3.608,-3.6169,-3.6156,-3.6137,-3.6098,-3.6175,-3.6207,-3.6221,-3.6049,-3.6048,-3.6047,-3.6047,0,0,-3.5682,-3.5744,-3.576,-3.5786,-3.5835,-3.5878,-3.594,-3.5993,-3.6023,-3.6064,-3.6114,-3.6189,-3.6171,-3.6202,-3.6205,-3.6246,-3.6325,-3.6222,-3.6223,-3.6239,-3.6423,-3.6436,-3.6451,-3.6318,-3.632,-3.6322,-3.6419,0,-3.5778,-3.5886,-3.5895,-3.5992,-3.6044,-3.6034,-3.6087,-3.6123,-3.6139,-3.6185,-3.6202,-3.6254,-3.6228,-3.6247,-3.6287,-3.6307,-3.6361,-3.63,-3.6363,-3.6366,-3.6352,-3.6468,-3.6482,-3.6572,-3.6432,-3.6434,-3.6436,0,-3.5903,-3.5948,-3.605,-3.6092,-3.6114,-3.6161,-3.6211,-3.6255,-3.6295,-3.6304,-3.6338,-3.6336,-3.6398,-3.6358,-3.6442,-3.64,-3.6427,-3.6441,-3.6445,-3.6449,-3.6404,-3.6475,-3.6601,-3.6614,-3.6456,-3.6454,-3.6453,0,-3.5974,-3.606,-3.6132,-3.6154,-3.6204,-3.6238,-3.626,-3.6297,-3.6329,-3.6373,-3.6393,-3.6443,-3.647,-3.6508,-3.6519,-3.649,-3.6603,-3.6565,-3.6611,-3.6611,-3.6634,-3.6632,-3.6765,-3.6654,-3.6654,-3.6654,-3.6653,0,-3.6078,-3.6141,-3.6164,-3.6208,-3.6277,-3.6287,-3.6355,-3.6376,-3.6409,-3.6456,-3.6451,-3.6496,-3.6509,-3.6555,-3.6564,-3.6632,-3.6644,-3.6653,-3.6654,-3.6652,-3.6651,-3.6669,-3.6662,-3.6657,-3.6656,-3.6656,-3.6655,0,-3.6168,-3.6186,-3.6264,-3.6305,-3.6317,-3.6366,-3.6401,-3.6443,-3.6459,-3.6519,-3.6534,-3.6558,-3.6613,-3.6628,-3.6693,-3.6699,-3.6779,-3.6775,-3.6765,-3.6765,-3.681,-3.6805,-3.6957,-3.6977,-3.6855,-3.6856,-3.6857,0,-3.6232,-3.628,-3.6327,-3.6359,-3.6383,-3.6434,-3.6466,-3.6478,-3.6512,-3.6561,-3.6596,-3.665,-3.6694,-3.6781,-3.6804,-3.6853,-3.685,-3.69,-3.6857,-3.6854,-3.6849,-3.6845,-3.685,-3.6907,-3.6909,-3.691,-3.6911,0,-3.6345,-3.6352,-3.6399,-3.645,-3.6489,-3.6529,-3.6567,-3.6593,-3.661,-3.6649,-3.6704,-3.6738,-3.6805,-3.6858,-3.6908,-3.693,-3.6923,-3.6924,-3.6937,-3.6935,-3.6927,-3.693,-3.6786,-3.692,-3.6919,-3.6918,-3.6918,-3.6918,-3.6423,-3.6465,-3.6504,-3.6557,-3.6587,-3.6624,-3.6665,-3.6686,-3.6733,-3.6789,-3.6793,-3.6853,-3.6891,-3.6958,-3.6983,-3.7029,-3.7014,-3.7034,-3.7038,-3.7043,-3.7046,-3.6921,-3.7039,-3.7038,-3.7038,-3.7038,-3.7038,0,-3.6534,-3.6559,-3.6607,-3.6662,-3.6703,-3.6694,-3.6736,-3.6771,-3.6824,-3.6861,-3.6904,-3.6967,-3.7019,-3.7047,-3.7098,-3.713,-3.7128,-3.7142,-3.7139,-3.7144,-3.7057,-3.704,-3.7143,-3.7143,-3.7143,-3.7143,-3.7143,-3.7143,-3.6596,-3.6666,-3.6677,-3.6762,-3.6786,-3.6846,-3.687,-3.6903,-3.6933,-3.7004,-3.7047,-3.7065,-3.7098,-3.7151,-3.7198,-3.7205,-3.7223,-3.7239,-3.7244,-3.7161,-3.7151,-3.714,-3.7124,-3.7244,-3.7244,-3.7328,-3.7328,-3.7329]}]]